{"data":{"norad_id":65991,"intl_designator":"2025-230T","name":"SDA_1681","alt_names":[],"object_type":"PAYLOAD","status":"ACTIVE","operator":null,"country":"US","launch_date":"2025-10-15","launch_site_code":"AFWTR","launch_vehicle":null,"mission":null,"orbit_class":"UNKNOWN","rcs_meters":null,"size_class":null,"mass_kg":null,"dimensions":null,"purposes":[],"wikipedia_slug":null,"has_3d_model":false,"image_url":null,"decayed_at":null,"tle_current":{"epoch":"2026-09-20T14:44:35.574432Z","epoch_age_seconds":130633,"freshness":"FRESH","line1":"1 65991U 25230T   26263.61430063  .00000193  00000+0  15958-3 0  9997","line2":"2 65991  81.2990 123.0071 0003669 314.8777  45.2081 13.85313778 47036","mean_motion":13.85313778,"eccentricity":0.0003669,"inclination_deg":81.299,"raan_deg":123.0071,"arg_perigee_deg":314.8777,"mean_anomaly_deg":45.2081,"bstar":0.00015958,"rev_number":4703,"period_min":103.94756934266,"perigee_km":942.41281631584,"apogee_km":947.78660741501,"semimajor_km":7323.2367118654,"source":"CELESTRAK","updated_at":"2026-09-21T09:00:15.690918Z"}}}